Location: ??????
(41.3164°N, 22.6615°E)
Time: 20:49:09
(UTC+00:00)

DX 1 - Visible Passes

Search period start: 27 June 2022 00:00
Search period end: 07 July 2022 00:00
Orbit: 618 x 628 km, 98.4° (Epoch: 27 June)

Date Brightness Start Highest point End Pass type
(mag) Time Alt. Az. Time Alt. Az. Time Alt. Az.
27 Jun ? 19:48:48 10° N 19:53:11 79° WNW 19:57:20 11° SSW visible
28 Jun ? 20:07:10 10° N 20:11:25 50° WNW 20:15:37 10° SSW visible
29 Jun ? 18:49:58 10° NE 18:53:27 23° E 18:56:54 10° SSE visible
29 Jun ? 20:25:42 10° N 20:29:35 32° WNW 20:33:27 10° SW visible
30 Jun ? 19:07:48 10° NNE 19:11:49 35° E 19:15:29 12° SSE visible
30 Jun ? 20:44:23 10° NNW 20:47:43 22° WNW 20:51:01 10° WSW visible
01 Jul ? 19:25:50 10° NNE 19:30:09 56° E 19:33:56 13° S visible
01 Jul ? 21:03:25 10° NNW 21:05:48 15° WNW 21:08:10 10° W visible
02 Jul ? 19:44:02 10° NNE 19:48:25 89° E 19:52:22 13° SSW visible
03 Jul ? 20:02:21 10° N 20:06:40 58° WNW 20:10:49 11° SSW visible
04 Jul ? 18:45:25 10° NE 18:48:38 20° E 18:51:47 10° SE visible
04 Jul ? 20:20:49 10° N 20:24:51 37° WNW 20:28:51 10° SW visible
05 Jul ? 19:03:08 10° NE 19:07:00 30° E 19:10:27 12° SSE visible
05 Jul ? 20:39:26 10° NNW 20:42:59 25° WNW 20:46:30 10° WSW visible
06 Jul ? 19:21:07 10° NNE 19:25:21 47° E 19:28:53 14° S visible
06 Jul ? 20:58:19 10° NNW 21:01:04 17° WNW 21:03:48 10° WSW visible
